Track LEMUR 2 OSCARLATOR now! 10-day predictions LEMUR 2 OSCARLATOR is classified as:
1 46299U 20061AD 21023.21431276 .00001632 00000-0 10127-3 0 9999 2 46299 97.5054 99.7509 0002101 127.4539 232.6882 15.11085645 21398